Wind_Speed
11 9 10 9 12 16 23 26 30 35 35 35 32 33 32 33 34 32 30 25 23 17 13 11 12 21 17 13 6 11 11 10 16 19 19 24 25 30 28 35 38 34 31 34 43
15 12 12 11 12 16 22 26 32 35 34 35 34 30 28 29 29 27 27 23 20 14 10 9 15 14 10 7 10 10 11 9 12 15 16 18 18 23 25 24 29 32 30 27 30
19 15 15 14 13 16 23 28 32 34 34 34 33 30 31 32 32 28 25 22 21 13 11 8 12 9 15 10 6 9 7 8 10 10 12 14 14 16 21 22 25 25 28 29 29
23 19 18 18 14 17 23 27 28 33 35 36 34 33 35 33 31 28 25 23 20 17 11 7 8 6 7 3 5 6 7 8 7 7 6 7 8 9 16 18 21 22 24 25 25
26 22 20 20 18 18 22 24 26 31 36 35 33 35 36 35 29 27 25 22 20 13 12 6 3 4 7 6 6 3 7 4 5 4 2 2 4 9 12 15 19 20 21 22 24
30 25 23 21 21 19 22 25 26 29 31 33 32 34 32 29 26 26 21 18 17 14 11 8 8 4 6 2 6 1 7 10 8 7 5 3 5 8 8 9 13 15 16 18 20
32 29 25 24 24 22 22 25 26 27 28 29 31 31 28 27 26 23 21 18 15 12 9 9 8 2 5 2 6 5 6 11 11 10 10 9 6 12 13 8 8 9 12 13 14
35 32 28 28 26 24 23 24 25 26 27 26 28 29 28 26 24 21 19 15 15 13 10 10 8 0 5 5 7 3 8 10 13 12 13 14 13 12 11 5 15 10 13 11 11
37 35 31 28 27 28 26 25 26 26 26 25 28 28 26 25 23 21 19 20 19 12 11 11 7 1 2 2 7 11 7 11 15 15 17 17 19 16 15 20 19 19 19 15 10
38 37 34 30 28 28 28 27 26 26 28 27 26 26 27 26 26 23 20 20 18 16 14 11 9 9 4 7 12 14 11 16 17 16 17 19 18 19 18 20 24 24 24 20 23
38 38 37 35 29 28 28 29 27 26 27 25 24 25 26 25 24 26 26 24 20 17 17 14 13 11 12 12 17 27 21 22 22 18 19 20 21 16 21 21 25 21 22 27 26
39 39 38 37 33 28 28 30 30 28 26 27 27 24 24 26 25 28 26 25 25 22 20 19 18 16 16 14 16 24 29 25 26 23 21 21 23 25 23 16 23 24 19 17 24
40 40 38 39 36 33 29 29 30 32 30 27 25 26 28 27 27 27 26 24 23 22 21 19 15 17 17 22 21 26 27 26 24 24 16 12 24 24 24 27 34 30 24 34 31
39 38 37 36 36 34 31 29 29 29 32 32 30 29 28 26 27 27 27 27 26 25 25 20 20 18 13 25 25 21 28 28 31 25 25 33 32 27 33 24 25 29 33 26 19
36 36 37 37 33 34 33 31 30 28 28 30 34 32 32 32 32 30 29 29 27 27 27 28 27 22 22 30 22 26 29 38 32 35 35 35 37 34 33 33 36 31 26 26 29
30 35 36 36 35 35 37 35 31 29 28 29 30 33 35 36 35 35 34 34 35 34 32 32 27 37 31 36 34 33 33 44 44 41 42 44 46 44 46 41 33 28 26 29 33
27 30 32 34 34 35 32 32 31 30 28 27 30 33 34 34 35 37 39 39 39 40 42 44 43 42 39 37 46 50 56 59 59 57 54 52 54 53 57 56 51 46 45 44 45
23 24 26 27 28 30 28 26 30 29 30 30 30 31 32 35 35 36 37 38 39 41 46 45 48 51 54 57 57 57 53 60 64 66 67 67 59 62 60 59 56 49 42 42 40
20 19 18 19 18 18 19 17 18 20 21 23 24 27 29 32 34 36 36 40 41 43 44 47 49 53 59 62 64 68 72 74 75 75 73 73 71 61 63 59 59 54 51 53 52
22 21 20 18 18 17 17 18 19 19 19 19 20 21 23 26 27 27 30 33 37 41 43 43 44 50 54 57 62 62 68 70 74 74 76 79 79 75 71 67 64 66 64 66 61
21 21 20 20 19 18 18 18 17 17 16 14 14 15 16 16 18 18 19 23 26 30 34 36 37 43 47 52 51 53 55 57 60 65 68 73 76 77 80 79 76 68 68 71 70
24 24 22 21 21 19 16 14 12 12 11 11 12 13 14 15 18 19 20 23 28 32 35 37 38 43 49 55 57 57 59 61 60 63 70 72 74 75 75 75 74 68 59 65 66
21 19 18 16 14 13 11 11 10 9 8 7 9 10 11 14 18 20 22 25 29 32 38 41 43 45 48 54 58 60 64 67 66 63 65 71 75 79 78 78 76 75 74 76 82
15 14 14 13 11 9 8 7 6 6 7 7 9 12 17 19 22 26 28 30 31 33 36 38 44 48 51 54 56 62 64 63 67 67 67 67 69 76 78 80 81 80 80 81 79
10 10 8 7 5 5 4 4 6 8 11 13 14 17 22 25 26 27 30 33 37 40 41 41 43 47 54 57 56 59 64 67 66 67 68 69 68 65 67 73 79 82 80 78 78
8 7 6 6 6 8 8 9 11 14 16 19 22 24 26 28 30 33 36 39 41 44 44 46 46 46 50 51 57 59 61 65 66 61 60 59 55 57 59 58 62 61 61 64 70
8 8 9 9 10 12 11 13 15 17 20 24 27 29 29 33 32 34 38 41 44 46 45 48 50 49 50 50 55 57 60 56 54 52 53 52 47 46 48 50 49 48 49 48 53
Wind_Direction
175 144 124 125 91 107 129 141 139 143 147 148 146 143 142 146 151 153 159 149 127 125 131 140 119 100 106 143 124 164 146 133 106 89 74 78 65 55 57 62 64 71 71 69 66
177 157 136 141 107 113 134 141 143 145 149 153 151 144 145 145 149 154 158 157 150 142 144 145 122 115 120 119 134 161 146 132 113 93 84 86 71 57 56 63 62 65 67 62 58
177 165 147 154 124 119 138 145 146 149 151 153 158 152 149 147 148 148 152 162 171 167 160 131 115 126 150 156 178 203 157 142 130 109 97 92 75 63 57 58 53 67 61 61 59
179 171 155 161 141 127 140 150 154 158 158 156 157 155 154 155 156 154 152 159 172 156 150 156 144 147 162 163 163 156 162 155 150 137 105 97 84 67 66 68 63 58 54 47 35
181 176 161 163 153 137 143 153 155 157 162 162 161 161 163 163 160 157 158 162 164 162 169 170 139 84 40 174 163 165 185 204 179 179 168 87 43 39 49 59 60 49 37 33 40
184 181 167 165 165 151 144 156 161 163 163 165 165 167 170 168 168 167 169 170 172 179 173 160 161 86 10 178 195 175 207 218 212 212 242 272 336 341 7 29 46 39 31 24 26
187 185 175 168 172 161 154 158 168 168 172 170 173 175 177 174 175 176 176 175 178 186 183 161 185 201 261 259 222 291 241 219 218 226 251 273 291 310 316 339 11 27 14 7 18
189 188 185 171 173 173 166 162 172 178 177 175 181 184 184 184 185 186 179 184 187 175 165 156 187 226 266 269 253 212 300 233 215 229 250 268 277 291 303 296 328 335 340 331 347
192 190 190 181 174 180 176 172 172 180 183 187 186 189 193 192 194 185 187 187 197 197 177 190 201 137 132 356 313 259 282 255 240 248 261 274 285 284 276 294 308 314 311 302 314
193 192 192 192 182 179 186 182 180 179 188 191 193 197 196 198 198 198 198 201 202 210 195 206 222 203 231 295 295 268 250 246 249 252 263 275 274 283 292 293 297 300 306 297 283
194 193 195 198 198 187 187 192 189 189 185 191 198 203 201 200 203 209 213 215 215 226 232 228 241 250 218 228 249 252 271 264 257 257 261 266 271 277 279 288 297 301 317 313 296
197 195 197 200 201 201 193 194 200 197 199 193 194 198 203 204 205 211 217 220 229 240 244 246 253 243 235 260 272 237 255 261 259 259 278 283 265 270 277 285 269 291 299 308 311
198 197 198 202 204 206 205 198 201 205 207 207 206 205 201 209 209 211 215 223 227 234 244 237 228 242 263 269 252 259 261 261 247 247 246 254 267 277 274 275 268 285 281 292 288
200 199 200 202 206 209 212 210 208 210 212 216 214 216 218 215 221 224 226 228 233 236 224 224 227 238 249 256 242 242 265 263 247 243 239 241 263 272 273 264 261 278 288 279 257
204 201 204 206 208 211 213 218 220 215 219 223 225 224 226 224 225 229 231 232 228 231 232 234 236 241 245 250 254 268 257 253 246 251 247 250 259 265 274 266 260 271 284 283 250
204 205 206 208 210 210 213 216 222 225 227 228 230 233 235 237 234 232 236 238 238 233 235 237 246 243 254 238 238 235 256 252 254 255 257 261 264 262 266 261 253 259 274 275 256
199 203 207 210 211 214 217 221 221 227 233 235 237 239 240 243 244 244 243 242 246 247 243 243 243 245 248 250 238 243 245 250 256 258 261 261 264 265 262 259 263 263 267 264 265
188 197 201 206 213 219 219 222 226 226 231 236 242 245 250 253 253 254 255 254 253 251 255 256 252 253 252 246 246 248 245 252 256 256 257 264 269 268 264 263 271 271 251 252 259
173 177 182 188 193 202 209 211 220 222 229 236 240 243 247 251 254 255 257 260 258 258 257 255 256 257 257 259 257 259 260 261 262 264 262 262 265 266 259 258 263 260 257 252 258
169 174 179 185 192 195 203 208 211 211 218 226 234 241 245 248 253 255 259 259 259 260 260 260 262 266 268 266 266 266 267 267 268 267 268 267 270 268 259 260 260 257 254 254 254
157 161 163 159 167 163 172 180 189 196 200 207 217 227 235 243 248 250 255 261 264 266 267 266 268 272 272 272 272 272 272 274 274 274 271 271 271 267 265 263 264 264 257 250 248
137 140 144 150 154 158 168 175 181 197 207 219 230 241 252 254 249 248 257 268 274 274 276 274 276 277 281 281 279 276 274 273 275 274 269 269 267 267 267 264 264 257 249 244 244
146 147 151 154 155 165 176 182 188 194 204 219 244 258 267 282 283 283 280 285 287 287 287 285 283 282 282 281 280 279 279 278 276 275 271 265 265 265 264 261 261 259 258 257 254
144 149 152 155 158 164 175 188 204 228 241 259 273 287 290 292 293 294 292 291 288 288 293 296 294 290 285 283 282 280 280 280 279 278 276 271 260 258 258 258 259 261 262 262 265
151 159 163 169 188 205 225 234 248 250 259 270 282 289 293 296 298 298 298 298 298 297 295 298 298 299 295 291 288 284 281 283 280 277 275 272 269 262 259 258 258 258 260 262 264
172 181 198 213 237 240 247 255 261 268 270 278 286 292 294 295 297 298 302 302 301 299 297 297 298 296 299 296 293 291 282 282 283 282 277 272 270 268 266 265 263 265 265 262 261
204 218 231 240 245 257 260 267 272 274 278 285 291 294 295 296 301 305 306 306 307 306 306 306 303 300 306 305 305 296 293 285 282 277 274 275 275 267 260 260 262 261 260 260 257
Height
10976 10979 10981 10982 10983 10983 10984 10986 10989 10991 10995 10997 11001 11003 11006 11010 11013 11015 11017 11019 11023 11026 11027 11029 11032 11033 11036 11036 11036 11037 11038 11040 11039 11040 11041 11040 11040 11038 11036 11033 11030 11028 11026 11024 11019
10975 10979 10981 10982 10984 10985 10986 10988 10991 10995 10998 11001 11004 11008 11011 11013 11015 11017 11020 11022 11026 11025 11027 11029 11032 11033 11035 11036 11035 11037 11039 11041 11041 11041 11042 11042 11041 11041 11039 11037 11036 11033 11032 11029 11025
10973 10978 10981 10983 10985 10986 10988 10990 10994 10997 11000 11003 11007 11010 11012 11014 11016 11018 11021 11024 11027 11027 11029 11031 11035 11035 11037 11038 11039 11038 11040 11041 11042 11041 11042 11041 11041 11041 11040 11039 11038 11038 11038 11035 11031
10972 10976 10980 10983 10985 10987 10989 10992 10995 10998 11001 11004 11007 11011 11013 11015 11017 11020 11023 11025 11027 11030 11032 11032 11034 11037 11038 11038 11040 11039 11039 11039 11042 11042 11042 11042 11042 11042 11042 11042 11041 11041 11041 11040 11037
10969 10975 10979 10983 10985 10988 10990 10993 10996 11000 11003 11005 11008 11011 11014 11017 11019 11021 11023 11025 11027 11029 11033 11034 11035 11036 11036 11038 11038 11038 11037 11038 11039 11041 11042 11043 11043 11044 11044 11044 11042 11042 11041 11040 11040
10967 10973 10978 10982 10985 10988 10991 10994 10997 11001 11004 11007 11010 11013 11016 11019 11021 11023 11024 11025 11027 11030 11033 11034 11036 11036 11037 11038 11037 11037 11037 11037 11039 11040 11042 11043 11044 11044 11045 11045 11044 11043 11042 11041 11040
10964 10970 10976 10981 10985 10989 10991 10994 10998 11001 11004 11008 11011 11014 11017 11020 11021 11023 11025 11025 11027 11029 11032 11033 11035 11036 11036 11035 11036 11035 11036 11035 11039 11040 11042 11044 11045 11043 11042 11043 11043 11043 11042 11041 11040
10961 10967 10974 10979 10984 10988 10992 10994 10997 11001 11005 11009 11012 11015 11017 11020 11023 11024 11025 11027 11028 11030 11031 11032 11033 11033 11032 11034 11034 11035 11037 11036 11038 11039 11040 11042 11042 11042 11042 11041 11042 11042 11042 11041 11039
10957 10965 10971 10977 10982 10986 10990 10994 10996 11000 11004 11008 11011 11014 11017 11020 11023 11024 11025 11027 11029 11030 11032 11031 11032 11033 11033 11034 11036 11038 11036 11036 11037 11039 11039 11041 11041 11040 11038 11038 11039 11040 11040 11039 11038
10954 10962 10969 10974 10980 10984 10988 10992 10996 10998 11002 11006 11010 11014 11017 11019 11021 11024 11026 11028 11028 11029 11031 11031 11030 11031 11033 11033 11036 11035 11034 11032 11034 11036 11036 11037 11036 11036 11037 11037 11035 11036 11037 11036 11033
10951 10958 10966 10972 10977 10983 10987 10991 10995 10998 11000 11005 11008 11012 11016 11018 11021 11023 11024 11025 11027 11028 11030 11031 11031 11032 11031 11032 11031 11031 11032 11031 11032 11032 11030 11030 11030 11032 11031 11031 11031 11031 11030 11029 11027
10948 10955 10963 10969 10975 10979 10984 10989 10993 10997 11001 11003 11006 11010 11013 11017 11018 11021 11024 11025 11025 11025 11025 11026 11029 11028 11028 11026 11026 11027 11027 11027 11028 11025 11025 11026 11026 11027 11027 11024 11027 11026 11024 11022 11023
10945 10952 10959 10965 10971 10975 10980 10985 10989 10993 10998 11001 11005 11008 11010 11014 11015 11017 11021 11021 11021 11020 11021 11021 11023 11023 11024 11021 11022 11020 11021 11023 11023 11022 11022 11020 11017 11020 11021 11020 11018 11019 11016 11015 11018
10942 10949 10956 10961 10968 10973 10978 10981 10986 10991 10994 10998 11000 11004 11007 11011 11012 11013 11017 11018 11017 11016 11017 11016 11018 11021 11021 11017 11014 11015 11016 11019 11018 11013 11015 11013 11013 11015 11013 11014 11013 11010 11011 11010 11012
10939 10946 10953 10958 10964 10970 10975 10978 10982 10987 10991 10993 10997 10999 11002 11006 11008 11011 11013 11013 11014 11013 11012 11014 11015 11018 11014 11017 11013 11012 11013 11010 11010 11008 11009 11006 11008 11011 11005 11006 11010 11010 11006 11007 11004
10937 10943 10949 10954 10960 10965 10968 10973 10979 10983 10986 10989 10992 10993 10996 10998 11002 11005 11007 11007 11008 11008 11008 11008 11009 11007 11007 11009 11006 11006 11005 11001 11001 11000 10998 11000 11000 11004 10997 10996 11006 11006 11001 10997 10995
10935 10940 10946 10951 10957 10961 10967 10972 10975 10978 10981 10983 10984 10986 10989 10992 10995 10998 11000 11001 11002 11002 11002 11003 11004 11001 10999 10998 10995 10994 10992 10988 10987 10989 10991 10991 10988 10990 10987 10984 10993 10998 10994 10991 10986
10933 10938 10943 10949 10954 10959 10964 10967 10969 10971 10974 10977 10979 10981 10983 10985 10987 10989 10990 10993 10995 10995 10993 10993 10993 10990 10987 10984 10983 10981 10979 10975 10975 10975 10978 10980 10978 10976 10971 10970 10978 10983 10989 10983 10986
10933 10938 10943 10948 10952 10956 10959 10964 10967 10969 10971 10972 10974 10975 10977 10978 10979 10981 10982 10982 10982 10982 10982 10983 10980 10975 10970 10969 10970 10968 10965 10963 10963 10959 10962 10961 10964 10962 10960 10958 10967 10968 10971 10973 10974
10934 10938 10942 10947 10951 10954 10957 10960 10962 10963 10966 10968 10970 10971 10972 10973 10974 10974 10973 10973 10972 10971 10971 10970 10968 10963 10961 10958 10955 10958 10949 10949 10947 10947 10945 10943 10943 10948 10948 10946 10952 10949 10955 10958 10959
10935 10939 10943 10946 10950 10953 10956 10959 10960 10962 10964 10966 10968 10969 10969 10970 10970 10970 10969 10967 10965 10963 10962 10960 10958 10952 10949 10943 10944 10940 10934 10932 10928 10924 10924 10922 10924 10927 10927 10929 10931 10930 10930 10939 10943
10938 10941 10945 10947 10950 10952 10956 10957 10959 10961 10963 10964 10966 10966 10966 10966 10965 10966 10964 10962 10958 10956 10953 10950 10950 10945 10938 10929 10926 10923 10919 10914 10912 10907 10901 10902 10903 10903 10904 10907 10907 10909 10909 10910 10914
10940 10943 10945 10948 10950 10953 10955 10956 10958 10959 10961 10962 10962 10962 10962 10960 10959 10959 10958 10955 10951 10948 10943 10940 10937 10934 10928 10916 10910 10907 10899 10893 10892 10890 10884 10884 10885 10882 10883 10886 10886 10886 10887 10891 10897
10942 10944 10946 10948 10950 10952 10953 10955 10956 10956 10957 10958 10958 10958 10956 10955 10953 10950 10948 10946 10943 10939 10934 10928 10922 10918 10913 10905 10897 10890 10882 10874 10870 10867 10863 10863 10864 10862 10864 10864 10865 10868 10869 10873 10876
10942 10944 10946 10947 10949 10950 10951 10951 10952 10953 10954 10953 10953 10953 10950 10948 10946 10943 10940 10936 10931 10926 10924 10919 10913 10905 10895 10888 10883 10875 10867 10851 10847 10845 10840 10837 10841 10846 10844 10842 10846 10849 10856 10859 10859
10940 10942 10944 10945 10946 10947 10948 10948 10948 10949 10949 10948 10947 10947 10944 10941 10938 10934 10930 10927 10922 10916 10913 10907 10901 10894 10884 10876 10863 10854 10844 10837 10829 10826 10820 10820 10825 10824 10824 10834 10831 10834 10835 10837 10838
10938 10940 10941 10942 10943 10943 10944 10944 10944 10944 10944 10942 10940 10938 10936 10931 10929 10926 10921 10915 10909 10903 10898 10891 10883 10878 10870 10861 10848 10832 10826 10819 10813 10807 10802 10802 10808 10809 10811 10811 10815 10816 10816 10817 10818